Погода в Хлухлуве

ЮАР     28°00′56″S   32°16′23″E
темп.,
°C
ветер,
м/с
пор.,
м/с
влажн.,
%
обл.,
%
осадки,
мм/ч
давл.,
гПа
погр.,
м
2 июля, сб
сб223:00+13с36830 0.0 1026115
02:00+13ссз37870 0.0 1025132
05:00+13ссз33800 0.0 102549
08:00+14ссз39700 0.0 1025246
11:00+23с79395 0.0 1024916
14:00+26с79230 0.0 10211281
17:00+22с49360 0.0 1020232
20:00+18с414560 0.0 1022412
3 июля, вс
вс323:00+15с411760 0.0 1022238
02:00+14с35750 0.0 1021111
05:00+13ссз23630 0.0 102134
08:00+16ссз24410 0.0 1022103
11:00+27ссз45190 0.0 1021810
14:00+28ссз66190 0.0 10181509
17:00+23с33280 0.0 101826
20:00+20ссз412400 0.0 1020275
4 июля, пн
пн423:00+17ссз23490 0.0 102137
02:00+17сз22490 0.0 102022
05:00+16з11470 0.0 102011
08:00+18ююз23400 0.0 102389
11:00+24ююз56290 0.0 1024853
14:00+26ююв33400 0.0 10221513
17:00+21ююв35600 0.0 1022138
20:00+17юз34850 0.0 102481
5 июля, вт
вт523:00+16зюз23920 0.0 102548
02:00+16зсз11910 0.0 102412
05:00+15ссз22890 0.0 102313
08:00+17с36780 0.0 1023180
11:00+25с68400 0.0 1021838
14:00+28ссз67280 0.0 10181361
17:00+24ссв47410 0.0 1017120
20:00+21с413641 0.0 1018365
6 июля, ср
ср623:00+18ссз35760 0.0 1019107
02:00+18ююз6147911 0.0 1021604
05:00+19ююз814742 0.0 1023859
08:00+20ююз6106586 0.0 10251166
11:00+23ююз67462 0.0 10261385
14:00+24ююв55429 0.0 10251600
17:00+20юв47590 0.0 1026254
20:00+16ю11740 0.0 102814